Billings, MT

5:42 PM MST on February 19, 2018 (GMT -0700)
Billings Logan International

Weather History for KBIL - December, 2012

Change the Weather History Date:

Monday, December 24, 2012

  Actual Average Record
Temperature  
Mean Temperature 8 °F 26 °F  
Max Temperature 12 °F 35 °F 56 °F (1936)
Min Temperature 3 °F 17 °F -32 °F (1983)
Degree Days  
Heating Degree Days 57 39  
Month to date heating degree days 808 916  
Since 1 July heating degree days 2190 2544  
Cooling Degree Days 0 0  
Month to date cooling degree days 0 0  
Year to date cooling degree days 958 636  
Moisture  
Dew Point 2 °F    
Average Humidity 83    
Maximum Humidity 92    
Minimum Humidity 73    
Precipitation  
Precipitation 0.15 in 0.02 in 0.15 in (2012)
Month to date precipitation 0.24 0.39  
Year to date precipitation 7.10 13.55  
Snow  
Snow 3.40 in 0.30 in 3.40 in (2012)
Month to date snowfall 4.4 6.2  
Since 1 July snowfall 16.0 17.9  
Snow Depth 3.00 in    
Sea Level Pressure  
Sea Level Pressure 30.21 in    
Wind  
Wind Speed 10 mph (NE)    
Max Wind Speed 18 mph    
Max Gust Speed 22 mph    
Visibility 5 miles    
Events Snow    
T = Trace of Precipitation, MM = Missing Value Source: NWS Daily Summary

Daily Weather History Graph

Daily Weather History Graph

Search for Another Location

Airport or City:

Trip Planner

Search our weather history database for the weather conditions in past years. The results will help you decide how hot, cold, wet, or windy it might be!

Date:

Astronomy

Dec. 24, 2012 Rise Set
Actual Time 7:53 AM MST 4:34 PM MST
Civil Twilight 7:19 AM MST 5:08 PM MST
Nautical Twilight 6:41 AM MST 5:46 PM MST
Astronomical Twilight 6:05 AM MST 6:22 PM MST
Moon 2:07 PM MST (12/24) 4:31 AM MST (12/24)
Length of Visible Light 9h 49m
Length of Day
8h 40m
Waxing Gibbous, 89% of the Moon is Illuminated
Dec 24
Waxing Gibbous
Dec 28
Full
Jan 4
Last Quarter
Jan 11
New
Jan 18
First Quarter

Hourly Weather History & Observations

Time (MST) Temp. Windchill Dew Point Humidity Pressure Visibility Wind Dir Wind Speed Gust Speed Precip Events Conditions
12:53 AM 10.9 °F -5.9 °F 8.1 °F 88% 29.99 in 10.0 mi NNE 16.1 mph - N/A   Mostly Cloudy
1:53 AM 10.9 °F -4.1 °F 7.0 °F 84% 29.98 in 10.0 mi NNE 12.7 mph - N/A   Overcast
2:53 AM 10.9 °F -4.7 °F 7.0 °F 84% 30.00 in 10.0 mi NE 13.8 mph - N/A   Overcast
3:53 AM 10.9 °F -5.9 °F 6.1 °F 81% 30.00 in 10.0 mi NNE 16.1 mph - N/A   Overcast
4:53 AM 9.0 °F -8.5 °F 5.0 °F 84% 30.03 in 10.0 mi NNE 16.1 mph - N/A   Overcast
5:53 AM 9.0 °F -4.2 °F 3.9 °F 80% 30.07 in 10.0 mi NE 9.2 mph - 0.00 in   Overcast
6:19 AM 8.6 °F -7.7 °F 3.2 °F 79% 29.90 in 10.0 mi NE 13.8 mph - N/A   Overcast
6:35 AM 8.6 °F -7.7 °F 3.2 °F 79% 29.91 in 10.0 mi NE 13.8 mph - N/A   Overcast
6:53 AM 8.1 °F -8.4 °F 3.0 °F 80% 30.10 in 10.0 mi NE 13.8 mph - N/A   Overcast
7:09 AM 8.6 °F -6.3 °F 3.2 °F 79% 29.93 in 10.0 mi NE 11.5 mph - N/A   Overcast
7:53 AM 8.1 °F -8.4 °F 1.9 °F 76% 30.14 in 10.0 mi NE 13.8 mph 20.7 mph N/A   Overcast
8:53 AM 8.1 °F -7.7 °F 3.0 °F 80% 30.17 in 10.0 mi NE 12.7 mph - N/A   Overcast
9:53 AM 8.1 °F -7.0 °F 1.9 °F 76% 30.19 in 10.0 mi NNE 11.5 mph - 0.00 in Snow Light Snow
10:53 AM 8.1 °F -7.7 °F 1.0 °F 73% 30.22 in 7.0 mi NE 12.7 mph - 0.00 in Snow Light Snow
11:53 AM 9.0 °F -5.9 °F 1.0 °F 70% 30.22 in 5.0 mi NE 11.5 mph - 0.00 in Snow Light Snow
12:53 PM 9.0 °F -6.6 °F 1.0 °F 70% 30.22 in 8.0 mi North 12.7 mph - 0.00 in Snow Light Snow
1:53 PM 9.0 °F -5.9 °F 1.0 °F 70% 30.23 in 5.0 mi NNE 11.5 mph - 0.00 in Snow Light Snow
2:53 PM 8.1 °F -7.7 °F 1.0 °F 73% 30.27 in 5.0 mi NNE 12.7 mph - 0.00 in Snow Light Snow
3:24 PM 6.8 °F -9.3 °F 1.4 °F 79% 30.08 in 2.0 mi North 12.7 mph - 0.00 in Snow Light Snow
3:30 PM 6.8 °F -8.6 °F 1.4 °F 79% 30.09 in 1.2 mi NNE 11.5 mph - 0.00 in Snow Light Snow
3:53 PM 7.0 °F -7.5 °F 3.0 °F 84% 30.30 in 0.8 mi North 10.4 mph - 0.00 in Snow Light Snow
4:00 PM 6.8 °F -6.9 °F 3.2 °F 85% 30.10 in 1.0 mi North 9.2 mph - 0.00 in Snow Light Snow
4:53 PM 6.1 °F -7.8 °F 3.0 °F 87% 30.35 in 1.0 mi North 9.2 mph - 0.01 in Snow Light Snow
5:53 PM 6.1 °F -2.8 °F 3.0 °F 87% 30.40 in 1.0 mi NNE 4.6 mph - 0.02 in Snow Light Snow
6:38 PM 6.8 °F -2.0 °F 3.2 °F 85% 30.20 in 2.0 mi NE 4.6 mph - 0.01 in Snow Light Snow
6:53 PM 6.1 °F -2.8 °F 1.9 °F 83% 30.43 in 2.0 mi NNE 4.6 mph - 0.01 in Snow Light Snow
6:58 PM 6.8 °F -6.9 °F 1.4 °F 79% 30.21 in 1.8 mi North 9.2 mph - 0.00 in Snow Light Snow
7:11 PM 5.0 °F -6.9 °F 1.4 °F 85% 30.22 in 2.0 mi North 6.9 mph - 0.00 in   Overcast
7:36 PM 5.0 °F -5.6 °F 1.4 °F 85% 30.22 in 2.0 mi NNE 5.8 mph - 0.01 in Snow Light Snow
7:53 PM 5.0 °F -5.6 °F 1.0 °F 84% 30.45 in 2.0 mi NNE 5.8 mph - 0.01 in Snow Light Snow
8:32 PM 5.0 °F -6.9 °F 1.4 °F 85% 30.23 in 1.5 mi ENE 6.9 mph - 0.00 in Snow Light Snow
8:53 PM 5.0 °F -5.6 °F 1.0 °F 84% 30.46 in 1.5 mi ENE 5.8 mph - 0.01 in Snow Light Snow
9:13 PM 3.2 °F -11.3 °F -0.4 °F 85% 30.25 in 1.2 mi NE 9.2 mph - 0.00 in Snow Light Snow
9:31 PM 3.2 °F -10.3 °F -0.4 °F 85% 30.25 in 0.8 mi NE 8.1 mph - 0.01 in Snow Light Snow
9:38 PM 3.2 °F -7.8 °F 1.4 °F 92% 30.26 in 0.8 mi NE 5.8 mph - 0.02 in Snow Light Snow
9:53 PM 3.9 °F -3.4 °F 1.0 °F 88% 30.49 in 0.8 mi NE 3.5 mph - 0.03 in Snow Light Snow
10:20 PM 3.2 °F -7.8 °F 1.4 °F 92% 30.26 in 0.8 mi ENE 5.8 mph - 0.02 in Snow Light Snow
10:53 PM 3.9 °F -5.3 °F -0.0 °F 84% 30.50 in 0.8 mi East 4.6 mph - 0.04 in Snow Light Snow
11:19 PM 3.2 °F -6.2 °F -0.4 °F 85% 30.27 in 0.8 mi East 4.6 mph - 0.01 in Snow Light Snow
11:53 PM 3.9 °F -6.9 °F -0.0 °F 84% 30.49 in 0.8 mi East 5.8 mph - 0.02 in Snow Light Snow